Wolke Sonne

Wetter Ammerndorf

Gehe zu: Roßtal | Roßtal 2

Tageswerte vom Sonntag, 26.05.2019

Optionen

Tag:
Erweitert:

Alle Werte vom Sonntag, 26.05.2019

Einen Moment bitte, die Daten werden aufbereitet...

UhrzeitTemperaturBoden 10cmBoden 20cmFeuchteLuftdruckNiederschlagEvapotranspirationWindWindböenWindrichtungSolarstrahlungUV-IndexSonne?Uhrzeit
Diagramm IconDiagramm IconDiagramm IconDiagramm IconDiagramm IconDiagramm IconDiagramm IconDiagramm IconDiagramm IconDiagramm IconDiagramm IconDiagramm IconDiagramm Icon
00:0010,3 °C 15,6 °C 15,6 °C 91 % 1015,7 hPa 0,0 mm - 0,0 km/h 0,0 km/h ONO 0,0 W/qm 0,0 nein 00:00
00:0510,1 °C 15,6 °C 15,6 °C 91 % 1015,8 hPa 0,0 mm 0,0 mm 0,0 km/h 0,0 km/h ONO 0,0 W/qm 0,0 nein 00:05
00:1010,1 °C 15,6 °C 15,6 °C 91 % 1015,8 hPa 0,0 mm 0,0 mm 0,0 km/h 0,0 km/h ONO 0,0 W/qm 0,0 nein 00:10
00:1510,1 °C 15,6 °C 15,6 °C 92 % 1015,8 hPa 0,0 mm - 0,0 km/h 1,4 km/h ONO 0,0 W/qm 0,0 nein 00:15
00:2010,0 °C 15,6 °C 15,6 °C 92 % 1015,8 hPa 0,0 mm - 0,0 km/h 1,4 km/h ONO 0,0 W/qm 0,0 nein 00:20
00:259,9 °C 15,6 °C 15,6 °C 92 % 1015,9 hPa 0,0 mm - 0,0 km/h 1,4 km/h ONO 0,0 W/qm 0,0 nein 00:25
00:309,9 °C 15,6 °C 15,6 °C 92 % 1016,0 hPa 0,0 mm - 0,0 km/h 0,0 km/h ONO 0,0 W/qm 0,0 nein 00:30
00:359,9 °C 15,6 °C 15,6 °C 92 % 1016,0 hPa 0,0 mm - 0,0 km/h 0,0 km/h ONO 0,0 W/qm 0,0 nein 00:35
00:409,9 °C 15,6 °C 15,6 °C 92 % 1015,9 hPa 0,0 mm - 0,0 km/h 0,0 km/h ONO 0,0 W/qm 0,0 nein 00:40
00:4510,2 °C 15,6 °C 15,6 °C 93 % 1015,9 hPa 0,0 mm - 0,0 km/h 0,0 km/h ONO 0,0 W/qm 0,0 nein 00:45
00:5010,2 °C 15,6 °C 15,6 °C 93 % 1015,9 hPa 0,0 mm - 0,0 km/h 1,4 km/h ONO 0,0 W/qm 0,0 nein 00:50
00:5510,3 °C 15,6 °C 15,6 °C 92 % 1015,8 hPa 0,0 mm - 0,0 km/h 1,4 km/h ONO 0,0 W/qm 0,0 nein 00:55
01:0010,3 °C 15,6 °C 15,6 °C 93 % 1015,8 hPa 0,0 mm - 0,0 km/h 0,0 km/h ONO 0,0 W/qm 0,0 nein 01:00
01:0510,4 °C 15,0 °C 15,6 °C 93 % 1015,7 hPa 0,0 mm 0,0 mm 0,0 km/h 0,0 km/h ONO 0,0 W/qm 0,0 nein 01:05
01:1010,4 °C 15,0 °C 15,6 °C 93 % 1015,7 hPa 0,0 mm 0,0 mm 0,0 km/h 0,0 km/h ONO 0,0 W/qm 0,0 nein 01:10
01:1510,6 °C 15,0 °C 15,0 °C 93 % 1015,8 hPa 0,0 mm - 0,0 km/h 0,0 km/h ONO 0,0 W/qm 0,0 nein 01:15
01:2010,7 °C 15,0 °C 15,0 °C 93 % 1015,8 hPa 0,0 mm - 0,0 km/h 0,0 km/h ONO 0,0 W/qm 0,0 nein 01:20
01:2510,7 °C 15,0 °C 15,0 °C 92 % 1015,8 hPa 0,0 mm - 0,0 km/h 0,0 km/h ONO 0,0 W/qm 0,0 nein 01:25
01:3010,7 °C 15,0 °C 15,0 °C 92 % 1015,7 hPa 0,0 mm - 0,0 km/h 1,4 km/h ONO 0,0 W/qm 0,0 nein 01:30
01:3510,7 °C 15,0 °C 15,0 °C 92 % 1015,6 hPa 0,0 mm - 0,0 km/h 1,4 km/h ONO 0,0 W/qm 0,0 nein 01:35
01:4010,7 °C 15,0 °C 15,0 °C 92 % 1015,6 hPa 0,0 mm - 0,0 km/h 0,0 km/h ONO 0,0 W/qm 0,0 nein 01:40
01:4510,8 °C 15,0 °C 15,0 °C 92 % 1015,5 hPa 0,0 mm - 0,0 km/h 0,0 km/h ONO 0,0 W/qm 0,0 nein 01:45
01:5010,7 °C 15,0 °C 15,0 °C 92 % 1015,5 hPa 0,0 mm - 0,0 km/h 0,0 km/h ONO 0,0 W/qm 0,0 nein 01:50
01:5510,7 °C 15,0 °C 15,0 °C 92 % 1015,4 hPa 0,0 mm - 0,0 km/h 0,0 km/h ONO 0,0 W/qm 0,0 nein 01:55
UhrzeitTemperaturBoden 10cmBoden 20cmFeuchteLuftdruckNiederschlagEvapotranspirationWindWindböenWindrichtungSolarstrahlungUV-IndexSonne?Uhrzeit
02:0010,6 °C 15,0 °C 15,0 °C 92 % 1015,4 hPa 0,0 mm - 0,0 km/h 0,0 km/h ONO 0,0 W/qm 0,0 nein 02:00
02:0510,5 °C 15,0 °C 15,0 °C 92 % 1015,4 hPa 0,0 mm 0,0 mm 0,0 km/h 0,0 km/h ONO 0,0 W/qm 0,0 nein 02:05
02:1010,5 °C 15,0 °C 15,0 °C 92 % 1015,4 hPa 0,0 mm 0,0 mm 0,0 km/h 0,0 km/h ONO 0,0 W/qm 0,0 nein 02:10
02:1510,5 °C 15,0 °C 15,0 °C 93 % 1015,3 hPa 0,0 mm - 0,0 km/h 0,0 km/h ONO 0,0 W/qm 0,0 nein 02:15
02:2010,4 °C 15,0 °C 15,0 °C 93 % 1015,4 hPa 0,0 mm - 0,0 km/h 0,0 km/h ONO 0,0 W/qm 0,0 nein 02:20
02:2510,4 °C 15,0 °C 15,0 °C 93 % 1015,3 hPa 0,0 mm - 0,0 km/h 0,0 km/h ONO 0,0 W/qm 0,0 nein 02:25
02:3010,3 °C 15,0 °C 15,0 °C 93 % 1015,3 hPa 0,0 mm - 0,0 km/h 0,0 km/h ONO 0,0 W/qm 0,0 nein 02:30
02:3510,3 °C 15,0 °C 15,0 °C 93 % 1015,1 hPa 0,0 mm - 0,0 km/h 0,0 km/h ONO 0,0 W/qm 0,0 nein 02:35
02:4010,2 °C 15,0 °C 15,0 °C 93 % 1015,1 hPa 0,0 mm - 0,0 km/h 0,0 km/h ONO 0,0 W/qm 0,0 nein 02:40
02:4510,0 °C 15,0 °C 15,0 °C 93 % 1015,2 hPa 0,0 mm - 0,0 km/h 0,0 km/h ONO 0,0 W/qm 0,0 nein 02:45
02:509,9 °C 15,0 °C 15,0 °C 93 % 1015,2 hPa 0,0 mm - 0,0 km/h 0,0 km/h ONO 0,0 W/qm 0,0 nein 02:50
02:559,8 °C 15,0 °C 15,0 °C 93 % 1015,2 hPa 0,0 mm - 0,0 km/h 0,0 km/h ONO 0,0 W/qm 0,0 nein 02:55
03:009,6 °C 15,0 °C 15,0 °C 93 % 1015,2 hPa 0,0 mm - 0,0 km/h 0,0 km/h ONO 0,0 W/qm 0,0 nein 03:00
03:059,6 °C 15,0 °C 15,0 °C 93 % 1015,2 hPa 0,0 mm 0,0 mm 0,0 km/h 0,0 km/h ONO 0,0 W/qm 0,0 nein 03:05
Gesamt: 10,3 °C 15,2 °C 15,2 °C 92 % 1015,6 hPa 0,0 mm 0,0 mm 0,0 km/h 0,3 km/h 0 0,0 W/qm 0,0 nein

Insgesamt 38 Zeilen mal 13 Spalten = 494 Werte werden angezeigt.

www.wetter-rosstal.de   •   www.wetter-franken.de   •   www.lightningmaps.org   •   Start   •   Kontakt / Datenschutz   •   PC-Kümmerer